FW5295 Weather Reports


time (UTC)temp
F
wind
direction
speed
knots
gust
knots
rain 1hr
in
rain 24hr
in
rain mn
in
humidity
%
barometer
mb
20260505112058 47 290 0.0 4.3 0.00 0.11 0.00 58 1006.7
20260505111556 47 55 1.7 3.5 0.00 0.11 0.00 57 1006.7
20260505111054 48 320 1.7 4.3 0.00 0.11 0.00 55 1007.4
20260505110606 48 1 1.7 4.3 0.00 0.11 0.00 54 1006.0
20260505110108 48 350 1.7 4.3 0.00 0.11 0.00 53 1006.3
20260505102050 49 320 1.7 3.5 0.00 0.11 0.00 54 1006.7
20260505101549 49 320 2.6 4.3 0.00 0.11 0.00 53 1006.3
20260505101049 49 286 1.7 4.3 0.00 0.11 0.00 53 1006.3
20260505100548 49 334 1.7 4.3 0.00 0.11 0.00 55 1005.6
20260505100046 50 4 0.9 4.3 0.00 0.11 0.00 55 1005.2
20260505095548 50 46 1.7 5.2 0.00 0.11 0.00 56 1005.2
20260505095046 50 25 1.7 5.2 0.00 0.11 0.00 56 1005.2
20260505094544 50 358 1.7 4.3 0.00 0.11 0.00 55 1005.6
20260505094046 50 20 1.7 4.3 0.00 0.11 0.00 54 1005.2
20260505093544 50 0 1.7 4.3 0.00 0.11 0.00 53 1005.6
20260505093045 51 14 2.6 4.3 0.00 0.11 0.00 54 1005.6
20260505093031 51 71 1.7 3.5 0.00 0.11 0.00 56 1005.6
20260505092048 51 23 0.0 3.5 0.00 0.11 0.00 54 1005.6
20260505092029 51 303 0.0 3.5 0.00 0.11 0.00 54 1005.2
20260505091042 51 311 0.9 4.3 0.00 0.11 0.00 54 1005.2
20260505090553 51 33 1.7 7.0 0.00 0.11 0.00 53 1005.2
20260505090041 51 32 1.7 7.0 0.00 0.11 0.00 55 1004.9
20260505085542 51 50 2.6 4.3 0.00 0.11 0.00 57 1005.2
20260505085041 52 345 1.7 4.3 0.00 0.11 0.00 57 1004.9
20260505084539 52 309 2.6 3.5 0.00 0.11 0.00 56 1004.9
20260505084040 52 358 2.6 3.5 0.00 0.11 0.00 55 1004.6
20260505083539 53 15 1.7 4.3 0.00 0.11 0.00 56 1004.6
20260505083040 53 336 1.7 5.2 0.00 0.11 0.00 55 1004.2
20260505082538 53 348 1.7 5.2 0.00 0.11 0.00 54 1003.9
20260505082301 52 23 0.0 4.3 0.00 0.11 0.00 56 1003.9
20260505081535 52 346 1.7 3.5 0.00 0.11 0.00 58 1003.9
20260505081043 52 71 1.7 3.5 0.00 0.11 0.00 58 1003.5
20260505080535 52 326 3.5 3.5 0.00 0.11 0.00 57 1003.5
20260505080034 52 279 0.9 2.6 0.00 0.11 0.00 57 1003.2
20260505075756 52 339 0.9 2.6 0.00 0.11 0.00 58 1003.2
20260505075034 52 48 1.7 2.6 0.00 0.11 0.00 58 1003.2
20260505074801 52 327 1.7 2.6 0.00 0.11 0.00 59 1003.2
20260505074033 52 332 1.7 2.6 0.00 0.11 0.00 57 1002.9
20260505073533 52 351 0.9 1.7 0.00 0.11 0.00 58 1002.9
20260505073032 52 3 0.9 1.7 0.00 0.11 0.00 59 1002.9
20260505072531 52 5 0.0 1.7 0.00 0.11 0.00 60 1003.2
20260505072032 53 233 0.0 2.6 0.00 0.11 0.00 58 1003.2
20260505072020 53 154 0.0 2.6 0.00 0.11 0.00 58 1003.2
20260505071030 53 130 0.0 1.7 0.00 0.11 0.00 57 1002.9
20260505070528 53 131 0.9 0.9 0.00 0.11 0.00 55 1002.5
20260505070030 53 318 0.9 1.7 0.00 0.11 0.00 55 1002.9
20260505065528 53 106 0.0 1.7 0.00 0.11 0.00 55 1002.5
20260505065248 53 283 0.0 1.7 0.00 0.11 0.00 55 1002.5
20260505064526 54 89 0.0 1.7 0.00 0.11 0.00 55 1002.2
20260505064028 54 41 0.0 1.7 0.00 0.11 0.00 55 1002.2
20260505063526 54 109 0.0 3.5 0.00 0.11 0.00 61 1002.2
20260505063515 55 48 0.9 3.5 0.00 0.11 0.00 53 1002.5
20260505062526 55 198 0.0 2.6 0.00 0.11 0.00 53 1002.2
20260505062243 55 91 0.0 2.6 0.00 0.11 0.00 51 1002.5
20260505061748 56 140 0.9 1.7 0.00 0.11 0.00 49 1002.2
20260505061024 56 185 0.0 1.7 0.00 0.11 0.00 49 1002.2
20260505060521 56 203 0.0 3.5 0.00 0.11 0.00 50 1002.2
20260505060024 56 300 1.7 3.5 0.00 0.11 0.00 48 1002.2
20260505055745 56 113 0.9 2.6 0.00 0.11 0.00 48 1001.7
20260505055021 56 135 0.9 2.6 0.00 0.11 0.00 47 1002.2
20260505054521 56 27 1.7 3.5 0.00 0.11 0.00 48 1001.7
20260505054022 57 182 1.7 3.5 0.00 0.11 0.00 47 1002.2
20260505053751 57 123 0.0 4.3 0.00 0.11 0.00 47 1001.7
20260505053027 57 75 0.0 4.3 0.00 0.11 0.00 48 1001.7
20260505052524 57 289 1.7 4.3 0.00 0.11 0.00 47 1001.4
20260505052031 58 214 1.7 4.3 0.00 0.11 0.00 48 1001.7
20260505051517 57 350 0.9 4.3 0.00 0.11 0.00 46 1001.7
20260505051017 57 330 2.6 3.5 0.00 0.11 0.00 48 1001.4
20260505050515 57 265 0.9 4.3 0.00 0.11 0.00 50 1001.7
20260505041512 60 311 0.0 1.7 0.00 0.11 0.11 52 1001.1
20260505041010 60 322 0.9 2.6 0.00 0.11 0.11 50 1001.1
20260505040511 60 301 1.7 3.5 0.00 0.11 0.11 51 1001.1
20260505040012 61 339 1.7 3.5 0.00 0.11 0.11 51 1001.1
20260505035508 61 359 0.9 3.5 0.00 0.11 0.11 56 1001.1
20260505035010 61 300 0.0 2.6 0.00 0.11 0.11 56 1001.1
20260505034508 61 248 1.7 2.6 0.00 0.11 0.11 56 1001.1
20260505034010 61 279 0.0 2.6 0.00 0.11 0.11 58 1000.7
20260505033507 61 260 0.9 1.7 0.00 0.11 0.11 57 1000.7
20260505033009 61 215 0.9 2.6 0.00 0.11 0.11 59 1000.4
20260505032725 61 244 1.7 2.6 0.00 0.11 0.11 58 1000.4
20260505032007 62 214 2.6 2.6 0.00 0.11 0.11 60 1000.4
20260505031505 61 244 0.9 2.6 0.00 0.11 0.11 64 1000.4
20260505031444 61 262 1.7 2.6 0.00 0.11 0.11 67 1000.4
20260505030503 62 252 0.0 4.3 0.00 0.11 0.11 68 1000.1
20260505030004 62 207 2.6 4.3 0.00 0.11 0.11 70 1000.4
20260505025504 62 240 3.5 3.5 0.00 0.11 0.11 71 1000.4
20260505025002 61 218 1.7 4.3 0.00 0.11 0.11 73 1000.4
20260505024501 61 204 1.7 6.1 0.00 0.11 0.11 74 1000.4
20260505024227 62 239 2.6 7.0 0.00 0.11 0.11 74 1000.4
20260505023001 61 190 3.5 5.2 0.00 0.11 0.11 74 1000.1
20260505022502 62 268 1.7 5.2 0.00 0.11 0.11 74 1000.1
20260505021959 62 235 1.7 5.2 0.00 0.11 0.11 74 999.7
20260505021459 62 210 2.6 4.3 0.00 0.11 0.11 74 999.7
20260505020959 62 244 2.6 5.2 0.00 0.11 0.11 74 999.4
20260505020458 62 283 1.7 5.2 0.00 0.11 0.11 75 999.4
20260505015958 62 209 3.5 7.0 0.00 0.11 0.11 75 999.0
20260505015455 62 202 1.7 7.0 0.00 0.11 0.11 75 999.0
20260505014957 62 204 2.6 5.2 0.00 0.11 0.11 74 999.0
20260505014457 62 182 3.5 5.2 0.00 0.11 0.11 74 999.0
20260505013957 62 251 3.5 5.2 0.00 0.11 0.11 73 998.7
20260505013454 62 213 3.5 5.2 0.00 0.11 0.11 73 998.4
20260505012954 63 218 2.6 7.8 0.00 0.11 0.11 72 998.4
20260505012454 63 227 2.6 7.8 0.00 0.11 0.11 70 998.4
20260505011953 64 230 3.5 7.8 0.00 0.11 0.11 67 998.4
20260505011455 64 229 5.2 7.8 0.00 0.11 0.11 67 998.4
20260505010954 65 184 3.5 7.0 0.00 0.11 0.11 63 998.4
20260505010453 66 217 3.5 6.1 0.00 0.11 0.11 63 998.4
20260505005955 66 222 3.5 5.2 0.00 0.11 0.11 61 998.4
20260505005451 66 216 3.5 5.2 0.00 0.11 0.11 63 998.4
20260505005216 67 225 1.7 6.1 0.00 0.11 0.11 64 997.9
20260505004449 67 178 4.3 6.1 0.00 0.11 0.11 60 997.9
20260505003950 67 176 2.6 5.2 0.00 0.11 0.11 59 997.9
20260505003448 67 197 1.7 3.5 0.00 0.11 0.11 60 997.2
20260505002949 67 188 1.7 3.5 0.00 0.11 0.11 59 996.9
20260505002450 67 218 2.6 3.5 0.00 0.11 0.11 59 996.6
20260505001949 67 184 3.5 3.5 0.00 0.11 0.11 59 996.6
20260505001447 67 152 1.7 5.2 0.00 0.11 0.11 59 996.6
20260505001213 67 210 1.7 5.2 0.00 0.11 0.11 57 996.6
20260505000704 68 203 2.6 5.2 0.00 0.11 0.11 58 996.9
20260504235945 68 233 2.6 4.3 0.00 0.11 0.11 57 996.6
20260504235657 68 219 1.7 6.1 0.00 0.11 0.11 57 996.6
20260504235547 68 272 1.7 6.1 0.00 0.11 0.11 57 996.6
20260504234443 68 214 2.6 11.3 0.00 0.11 0.11 57 996.6
20260504233942 68 223 2.6 11.3 0.00 0.11 0.11 56 996.9
20260504233702 69 248 6.1 9.6 0.00 0.11 0.11 56 997.2
20260504232942 68 242 3.5 6.1 0.00 0.11 0.11 54 997.2
20260504232653 64 272 2.6 4.3 0.11 0.11 0.11 69 996.9
20260504232648 74 298 3.5 12.2 0.00 0.00 0.00 41 997.2
20260504232642 78 261 5.2 8.7 0.00 0.00 0.00 34 997.2
20260504232629 79 239 3.5 8.7 0.00 0.00 0.00 35 997.6
20260504232614 78 254 2.6 7.0 0.00 0.00 0.00 33 997.6
20260504232605 78 205 3.5 7.8 0.00 0.00 0.00 37 998.4
20260504232547 79 233 5.2 12.2 0.00 0.00 0.00 28 998.4
20260504232452 65 258 6.1 7.0 0.11 0.11 0.11 61 997.2
20260504232445 68 237 3.5 4.3 0.01 0.11 0.11 52 997.2
20260504232320 64 266 0.0 5.2 0.11 0.11 0.11 71 996.9
20260504232312 64 306 2.6 5.2 0.11 0.11 0.11 67 996.9
20260504232308 64 286 3.5 5.2 0.11 0.11 0.11 66 997.2
20260504232300 62 352 2.6 11.3 0.11 0.11 0.11 74 997.9
20260504232255 61 248 4.3 11.3 0.11 0.11 0.11 82 998.4
20260504232249 62 262 2.6 8.7 0.10 0.10 0.11 78 997.6
20260504232245 64 239 2.6 15.6 0.10 0.10 0.10 73 997.2
20260504232229 74 0 2.6 15.6 0.04 0.04 0.06 50 998.4
20260504232112 75 229 12.2 12.2 0.00 0.00 0.00 42 997.2
20260504232107 76 278 3.5 7.0 0.00 0.00 0.00 38 997.2
20260504232058 77 240 3.5 8.7 0.00 0.00 0.00 36 996.9
20260504232044 67 257 1.7 4.3 0.07 0.11 0.11 53 996.9
20260504231925 78 266 4.3 8.7 0.00 0.00 0.00 34 997.2
20260504231921 78 241 7.0 8.7 0.00 0.00 0.00 36 997.2
20260504231759 78 274 7.8 9.6 0.00 0.00 0.00 34 997.2
20260504231752 79 249 6.1 9.6 0.00 0.00 0.00 34 997.2
20260504231748 79 300 3.5 7.8 0.00 0.00 0.00 34 997.2
20260504231740 78 276 2.6 7.8 0.00 0.00 0.00 34 997.6
20260504231729 78 332 3.5 9.6 0.00 0.00 0.00 36 997.2
20260504231721 78 249 2.6 9.6 0.00 0.00 0.00 34 997.6
20260504231717 78 240 4.3 9.6 0.00 0.00 0.00 34 997.6
20260504231711 78 247 3.5 9.6 0.00 0.00 0.00 34 997.6
20260504231706 78 242 6.1 9.6 0.00 0.00 0.00 35 997.9
20260504231657 78 225 3.5 7.8 0.00 0.00 0.00 34 997.9
20260504231539 79 275 5.2 7.0 0.00 0.00 0.00 35 997.9
20260504231526 67 246 2.6 6.1 0.11 0.11 0.11 56 996.9
20260504231407 78 245 2.6 7.8 0.00 0.00 0.00 31 997.9
20260504231401 78 237 7.0 7.8 0.00 0.00 0.00 33 997.9
20260504231354 78 207 2.6 9.6 0.00 0.00 0.00 30 998.4
20260504231349 79 296 2.6 9.6 0.00 0.00 0.00 33 997.9
20260504231343 79 234 3.5 9.6 0.00 0.00 0.00 29 998.4
20260504231338 79 243 7.8 9.6 0.00 0.00 0.00 31 998.4
20260504231325 80 265 3.5 7.8 0.00 0.00 0.00 29 998.4
20260504231320 79 194 1.7 12.2 0.00 0.00 0.00 30 998.4
20260504231158 79 63 1.7 8.7 0.00 0.00 0.00 28 998.4
20260504231152 79 260 1.7 7.8 0.00 0.00 0.00 30 998.4
20260504231148 78 251 3.5 7.8 0.00 0.00 0.00 31 998.4
20260504231140 77 226 4.3 9.6 0.00 0.00 0.00 32 998.7
20260504231128 77 265 2.6 9.6 0.00 0.00 0.00 32 998.7
20260504231121 77 248 4.3 8.7 0.00 0.00 0.00 31 999.0
20260504231117 78 268 2.6 11.3 0.00 0.00 0.00 32 999.0
20260504231110 77 260 3.5 11.3 0.00 0.00 0.00 32 999.0
20260504231106 76 272 4.3 11.3 0.00 0.00 0.00 34 999.0
20260504231058 77 259 4.3 13.0 0.00 0.00 0.00 32 999.0
20260504231053 78 288 7.0 13.0 0.00 0.00 0.00 34 999.0
20260504231046 77 245 6.1 9.6 0.00 0.00 0.00 33 999.0
20260504231042 77 234 3.5 9.6 0.00 0.00 0.00 32 999.0
20260504231028 77 203 9.6 13.0 0.00 0.00 0.00 34 999.0
20260504231020 67 227 3.5 7.0 0.11 0.11 0.11 57 996.9
20260504183411 77 294 5.2 13.0 0.00 0.00 0.00 33 999.0
20260504182914 77 215 3.5 7.8 0.00 0.00 0.00 36 999.0
20260504182638 76 253 4.3 7.0 0.00 0.00 0.00 39 999.0
20260504181911 76 278 4.3 7.0 0.00 0.00 0.00 34 999.4
20260504181410 76 260 3.5 9.6 0.00 0.00 0.00 36 999.4
20260504180912 76 245 6.1 9.6 0.00 0.00 0.00 35 999.0
20260504180409 76 222 4.3 9.6 0.00 0.00 0.00 36 999.4
20260504180133 75 188 1.7 9.6 0.00 0.00 0.00 35 999.4
20260504175408 75 292 4.3 13.0 0.00 0.00 0.00 40 999.4
20260504174909 75 273 2.6 13.0 0.00 0.00 0.00 39 999.4
20260504174407 75 203 4.3 7.0 0.00 0.00 0.00 38 999.7
20260504173907 74 268 4.3 7.0 0.00 0.00 0.00 39 999.7
20260504173406 74 259 3.5 13.0 0.00 0.00 0.00 38 1000.1
20260504172905 74 207 1.7 13.0 0.00 0.00 0.00 38 1000.1
20260504172406 74 248 6.1 9.6 0.00 0.00 0.00 39 1000.1
20260504172128 73 291 2.6 10.4 0.00 0.00 0.00 38 1000.1
20260504171403 73 271 3.5 10.4 0.00 0.00 0.00 40 1000.1
20260504170905 73 245 5.2 8.7 0.00 0.00 0.00 39 1000.1
20260504170403 73 262 3.5 8.7 0.00 0.00 0.00 40 1000.1
20260504160356 70 192 3.5 11.3 0.00 0.01 0.00 46 1001.1
20260504151109 68 234 3.5 9.6 0.00 0.02 0.00 50 1001.7
20260504150349 68 231 4.3 9.6 0.00 0.02 0.00 49 1001.7
20260504140844 62 182 1.7 5.2 0.00 0.02 0.00 57 1002.2
20260504140342 62 217 3.5 5.2 0.00 0.02 0.00 59 1002.2
20260504130336 55 193 1.7 7.0 0.00 0.02 0.00 70 1002.9